This is the latest recevied weather packets stored in our database for station/object OE6ACM-10. If no packets are shown the sender has not sent any weather packets the latest 10 day(s).
| Time | Temp. | Humidity | Pressure | Rain* | Wind** | Luminosity | Snow |
|---|---|---|---|---|---|---|---|
| 1787417360 | 25° C | 100% | 929.7 hPa | - | - | - | - |
| 1787417060 | 25° C | 100% | 929.6 hPa | - | - | - | - |
| 1787416760 | 26.11° C | 100% | 929.5 hPa | - | - | - | - |
| 1787416460 | 26.67° C | 100% | 929.4 hPa | - | - | - | - |
| 1787416160 | 26.67° C | 100% | 929.4 hPa | - | - | - | - |
| 1787415860 | 27.22° C | 100% | 929.4 hPa | - | - | - | - |
| 1787415560 | 28.33° C | 100% | 929.2 hPa | - | - | - | - |
| 1787415260 | 28.89° C | 100% | 929.3 hPa | - | - | - | - |
| 1787414960 | 28.89° C | 100% | 929.3 hPa | - | - | - | - |
| 1787414660 | 28.89° C | 100% | 929.3 hPa | - | - | - | - |
| 1787414360 | 27.78° C | 100% | 929.2 hPa | - | - | - | - |
| 1787414060 | 27.22° C | 100% | 929.2 hPa | - | - | - | - |
| 1787413760 | 26.67° C | 100% | 929.1 hPa | - | - | - | - |
| 1787413460 | 26.11° C | 100% | 929.2 hPa | - | - | - | - |
| 1787413160 | 26.11° C | 100% | 929.3 hPa | - | - | - | - |
| 1787412860 | 26.11° C | 100% | 929.3 hPa | - | - | - | - |
| 1787412560 | 26.11° C | 100% | 929.2 hPa | - | - | - | - |
| 1787412260 | 25.56° C | 100% | 929.1 hPa | - | - | - | - |
| 1787411960 | 25.56° C | 100% | 929.1 hPa | - | - | - | - |
| 1787411660 | 26.11° C | 100% | 929 hPa | - | - | - | - |
| 1787411360 | 27.22° C | 100% | 929.1 hPa | - | - | - | - |
| 1787411060 | 28.33° C | 100% | 928.9 hPa | - | - | - | - |
| 1787410760 | 29.44° C | 100% | 928.8 hPa | - | - | - | - |
| 1787410460 | 30.56° C | 97% | 928.8 hPa | - | - | - | - |
| 1787410160 | 32.22° C | 93% | 928.8 hPa | - | - | - | - |
* Rain since midnight (hover to see other rain measurements)
** Current wind speed in m/s (hover to see current wind gust speed)